EW5945 Weather Reports


Display with metric or nautical units.
time (UTC)temp
F
wind
direction
speed
MPH
gust
MPH
rain 1hr
in
rain 24hr
in
rain mn
in
humidity
%
barometer
mb
20260906053338 72 353 0.0 0.0 0.00 0.00 0.00 100 1011.5
20260906052838 72 77 0.0 2.0 0.00 0.00 0.00 100 1011.5
20260906052339 72 271 0.0 2.0 0.00 0.00 0.00 100 1011.9
20260906051838 73 6 0.0 2.0 0.00 0.00 0.00 100 1011.9
20260906051338 73 83 0.0 2.0 0.00 0.00 0.00 100 1011.5
20260906050839 73 42 2.0 2.0 0.00 0.00 0.00 100 1011.9
20260906050340 73 82 0.0 0.0 0.00 0.00 0.00 100 1011.9
20260906045838 73 11 3.0 3.0 0.00 0.00 0.00 100 1011.5
20260906045340 72 335 0.0 0.0 0.00 0.00 0.00 100 1011.5
20260906044838 72 13 0.0 0.0 0.00 0.00 0.00 100 1011.5
20260906044338 72 27 2.0 2.0 0.00 0.00 0.00 100 1011.5
20260906043838 72 53 2.0 2.0 0.00 0.00 0.00 100 1011.5
20260906043338 72 345 0.0 0.0 0.00 0.00 0.00 100 1011.5
20260906042838 72 12 2.0 2.0 0.00 0.00 0.00 100 1011.2
20260906042338 73 358 0.0 0.0 0.00 0.00 0.00 100 1011.2
20260906041839 72 7 0.0 0.0 0.00 0.00 0.00 100 1011.2
20260906041338 73 357 0.0 0.0 0.00 0.00 0.00 100 1011.2
20260906040838 73 318 0.0 0.0 0.00 0.00 0.00 100 1011.2
20260906040338 73 305 0.0 0.0 0.00 0.00 0.00 100 1011.2
20260906035838 73 272 0.0 2.0 0.00 0.00 0.57 100 1011.2
20260906035338 73 285 0.0 0.0 0.00 0.00 0.57 100 1011.2
20260906034838 73 3 0.0 0.0 0.00 0.00 0.57 100 1011.2
20260906034338 73 38 2.0 2.0 0.00 0.00 0.57 100 1011.2
20260906033838 73 39 2.0 2.0 0.00 0.00 0.57 100 1011.5
20260906033339 73 1 0.0 0.0 0.00 0.00 0.57 100 1011.5
20260906032838 73 26 2.0 3.0 0.00 0.00 0.57 100 1011.5
20260906032338 73 47 3.0 3.0 0.00 0.00 0.57 100 1011.5
20260906031839 73 355 2.0 2.0 0.00 0.00 0.57 100 1011.5
20260906031338 73 339 0.0 0.0 0.00 0.00 0.57 100 1011.5
20260906030838 73 305 0.0 0.0 0.00 0.00 0.57 100 1011.5
20260906030338 73 278 0.0 2.0 0.00 0.00 0.57 100 1011.5
20260906025838 73 326 2.0 2.0 0.00 0.00 0.57 100 1011.5
20260906025339 73 13 0.0 0.0 0.00 0.00 0.57 100 1011.9
20260906024840 73 36 2.0 2.0 0.00 0.00 0.57 100 1011.9
20260906024339 73 313 0.0 0.0 0.00 0.00 0.57 100 1011.5
20260906023838 73 304 0.0 2.0 0.00 0.00 0.57 100 1011.5
20260906023341 73 258 0.0 0.0 0.00 0.00 0.57 100 1011.9
20260906022838 73 359 0.0 0.0 0.00 0.00 0.57 100 1011.9
20260906022339 73 348 0.0 2.0 0.00 0.00 0.57 100 1011.9
20260906021838 73 254 2.0 2.0 0.00 0.00 0.57 100 1011.9
20260906021338 73 294 0.0 0.0 0.00 0.00 0.57 100 1011.9
20260906020838 73 305 0.0 0.0 0.00 0.00 0.57 100 1011.9
20260906020338 73 305 0.0 0.0 0.00 0.00 0.57 100 1011.9
20260906015838 73 279 0.0 0.0 0.00 0.00 0.57 100 1011.9
20260906015338 73 241 2.0 2.0 0.00 0.00 0.57 100 1011.9
20260906014839 73 305 0.0 3.0 0.00 0.00 0.57 100 1011.9
20260906014338 73 251 2.0 2.0 0.01 0.00 0.57 100 1011.9
20260906013838 73 266 2.0 2.0 0.01 0.00 0.57 100 1011.9
20260906013338 73 255 2.0 3.0 0.01 0.00 0.57 100 1011.9
20260906012839 73 280 5.0 5.0 0.02 0.00 0.57 100 1011.9
20260906012338 73 266 3.0 7.0 0.02 0.00 0.57 100 1011.5
20260906011838 73 237 5.0 9.0 0.02 0.00 0.57 100 1011.5
20260906011338 73 247 5.0 5.0 0.03 0.00 0.57 100 1011.2
20260906010838 73 245 5.0 5.0 0.03 0.00 0.57 100 1010.8
20260906010338 73 236 2.0 3.0 0.04 0.00 0.57 100 1010.5
20260906005838 73 227 3.0 5.0 0.04 0.00 0.57 100 1010.5
20260906005338 74 235 3.0 3.0 0.05 0.00 0.57 100 1010.2
20260906004839 74 309 0.0 0.0 0.07 0.00 0.57 100 1010.2
20260906004338 74 252 2.0 2.0 0.09 0.00 0.57 100 1010.2
20260906003839 74 218 3.0 3.0 0.11 0.00 0.57 100 1010.5
20260906003338 73 245 2.0 2.0 0.14 0.00 0.57 100 1010.5
20260906002838 73 224 3.0 3.0 0.18 0.00 0.57 100 1010.2
20260906002342 73 249 3.0 5.0 0.21 0.00 0.57 100 1010.2
20260906001838 73 204 3.0 3.0 0.26 0.00 0.57 100 1010.2
20260906001339 73 107 2.0 2.0 0.30 0.00 0.57 100 1010.2
20260906000838 73 226 2.0 2.0 0.34 0.00 0.56 100 1010.2
20260906000340 73 277 0.0 0.0 0.37 0.00 0.56 100 1010.2
20260905235838 73 270 0.0 0.0 0.40 0.00 0.55 100 1010.2
20260905235338 73 267 0.0 0.0 0.41 0.00 0.54 100 1010.5
20260905234838 73 286 0.0 2.0 0.41 0.00 0.54 100 1010.5
20260905234338 73 336 0.0 2.0 0.40 0.00 0.53 100 1010.5
20260905233838 73 322 0.0 0.0 0.38 0.00 0.53 100 1010.5
20260905233338 73 167 0.0 0.0 0.35 0.00 0.52 100 1010.2
20260905232838 73 259 0.0 0.0 0.31 0.00 0.52 100 1009.8
20260905232338 73 34 0.0 0.0 0.27 0.00 0.52 100 1009.5
20260905231838 73 102 0.0 2.0 0.23 0.00 0.52 100 1009.8
20260905231338 74 188 2.0 2.0 0.19 0.00 0.51 100 1010.2
20260905230838 74 255 0.0 0.0 0.14 0.00 0.49 100 1010.8
20260905230338 74 312 2.0 2.0 0.11 0.00 0.46 100 1010.8
20260905225838 74 81 3.0 3.0 0.07 0.00 0.41 98 1011.2
20260905225338 74 240 14.0 15.0 0.04 0.00 0.18 98 1012.5
20260905224838 74 162 3.0 7.0 0.03 0.00 0.17 96 1011.9
20260905224339 75 219 0.0 2.0 0.02 0.00 0.13 93 1009.8
20260905223838 75 356 5.0 15.0 0.01 0.00 0.08 93 1009.1
20260905223339 77 12 5.0 5.0 0.00 0.00 0.07 89 1008.5
20260905222838 79 75 6.0 10.0 0.00 0.00 0.00 85 1009.1
20260905222338 80 359 27.0 29.0 0.00 0.00 0.00 81 1010.2
20260905221838 81 100 14.0 24.0 0.00 0.00 0.00 79 1010.5
20260905221342 82 35 16.0 22.0 0.00 0.00 0.00 80 1010.2
20260905220838 83 90 3.0 3.0 0.00 0.00 0.00 78 1009.5
20260905220339 84 49 2.0 3.0 0.00 0.00 0.00 77 1009.1
20260905215838 84 56 2.0 2.0 0.00 0.00 0.00 75 1009.1
20260905215338 85 294 0.0 2.0 0.00 0.00 0.00 74 1009.1
20260905214839 86 190 3.0 3.0 0.00 0.00 0.00 72 1009.5
20260905214338 88 109 5.0 5.0 0.00 0.00 0.00 70 1009.1
20260905213838 90 116 5.0 5.0 0.00 0.00 0.00 69 1009.1
20260905213338 92 140 6.0 17.0 0.00 0.00 0.00 66 1008.5
20260905212838 95 107 2.0 2.0 0.00 0.00 0.00 64 1008.5
20260905212340 95 322 2.0 2.0 0.00 0.00 0.00 63 1008.1
20260905211838 95 315 0.0 2.0 0.00 0.00 0.00 64 1008.1
20260905211338 95 35 2.0 5.0 0.00 0.00 0.00 62 1008.1
20260905210838 95 175 2.0 3.0 0.00 0.00 0.00 61 1008.1
20260905210340 96 228 2.0 3.0 0.00 0.00 0.00 60 1008.1
20260905205838 95 24 3.0 3.0 0.00 0.00 0.00 62 1008.1
20260905205339 95 232 2.0 5.0 0.00 0.00 0.00 60 1008.1
20260905204840 95 241 3.0 5.0 0.00 0.00 0.00 61 1008.1
20260905204342 96 253 3.0 5.0 0.00 0.00 0.00 60 1008.1
20260905203838 96 233 3.0 3.0 0.00 0.00 0.00 59 1008.1
20260905203339 96 257 3.0 5.0 0.00 0.00 0.00 58 1007.8
20260905202838 96 284 5.0 5.0 0.00 0.00 0.00 59 1007.8
20260905202339 98 222 5.0 9.0 0.00 0.00 0.00 57 1007.8
20260905201838 97 226 2.0 3.0 0.00 0.00 0.00 57 1007.8
20260905201339 98 243 6.0 10.0 0.00 0.00 0.00 57 1008.1
20260905200838 97 215 5.0 7.0 0.00 0.00 0.00 60 1008.1
20260905200338 97 211 3.0 7.0 0.00 0.00 0.00 58 1008.1
20260905195838 98 215 5.0 5.0 0.00 0.00 0.00 57 1008.1
20260905195342 98 267 5.0 5.0 0.00 0.00 0.00 57 1008.1
20260905194838 97 290 5.0 5.0 0.00 0.00 0.00 59 1008.5
20260905194338 98 231 5.0 5.0 0.00 0.00 0.00 56 1008.5
20260905193838 97 315 2.0 3.0 0.00 0.00 0.00 58 1008.8
20260905193339 97 341 3.0 5.0 0.00 0.00 0.00 60 1008.5
20260905192838 98 300 2.0 3.0 0.00 0.00 0.00 59 1008.5
20260905192338 96 8 0.0 2.0 0.00 0.00 0.00 63 1008.8
20260905191838 97 30 3.0 5.0 0.00 0.00 0.00 61 1008.8
20260905191340 97 45 3.0 3.0 0.00 0.00 0.00 65 1009.1
20260905190840 96 326 2.0 3.0 0.00 0.00 0.00 61 1009.1
20260905190338 98 276 3.0 5.0 0.00 0.00 0.00 59 1009.1
20260905185838 97 234 2.0 3.0 0.00 0.00 0.00 60 1009.1
20260905185338 96 299 2.0 2.0 0.00 0.00 0.00 61 1009.5
20260905184838 97 259 5.0 7.0 0.00 0.00 0.00 60 1009.5
20260905184338 96 252 3.0 3.0 0.00 0.00 0.00 63 1009.5
20260905183838 97 241 6.0 7.0 0.00 0.00 0.00 61 1009.5
20260905183338 96 203 2.0 2.0 0.00 0.00 0.00 63 1009.5
20260905182838 96 228 3.0 9.0 0.00 0.00 0.00 63 1009.8
20260905182339 96 179 2.0 9.0 0.00 0.00 0.00 63 1009.8
20260905181838 96 230 8.0 9.0 0.00 0.00 0.00 64 1009.8
20260905181338 96 311 0.0 3.0 0.00 0.00 0.00 65 1010.2
20260905180839 94 284 3.0 7.0 0.00 0.00 0.00 65 1010.2
20260905180338 95 208 2.0 2.0 0.00 0.00 0.00 66 1010.2
20260905175838 95 227 5.0 5.0 0.00 0.00 0.00 67 1010.2
20260905175339 95 205 2.0 5.0 0.00 0.00 0.00 67 1010.2
20260905174839 94 189 3.0 3.0 0.00 0.00 0.00 67 1010.2
20260905174338 94 231 2.0 5.0 0.00 0.00 0.00 72 1010.5
20260905173838 92 30 6.0 7.0 0.00 0.00 0.00 71 1010.5
20260905173338 93 333 3.0 5.0 0.00 0.00 0.00 70 1010.5
20260905172838 94 325 3.0 7.0 0.00 0.00 0.00 70 1010.5
20260905172338 94 207 3.0 10.0 0.00 0.00 0.00 69 1010.8
20260905171839 94 260 3.0 5.0 0.00 0.00 0.00 68 1010.8
20260905171339 94 209 3.0 3.0 0.00 0.00 0.00 70 1010.8
20260905170838 94 356 3.0 7.0 0.00 0.00 0.00 70 1010.8
20260905170338 93 67 3.0 5.0 0.00 0.00 0.00 72 1010.8
20260905165838 93 244 2.0 5.0 0.00 0.00 0.00 73 1011.2
20260905165339 92 248 3.0 9.0 0.00 0.00 0.00 72 1011.2
20260905164838 92 226 3.0 10.0 0.00 0.00 0.00 72 1011.2
20260905164338 92 63 8.0 9.0 0.00 0.00 0.00 72 1011.5
20260905163838 92 242 8.0 9.0 0.00 0.00 0.00 72 1011.5
20260905163338 92 191 2.0 3.0 0.00 0.00 0.00 74 1011.5
20260905162841 91 252 5.0 10.0 0.00 0.00 0.00 73 1011.5
20260905162338 92 206 5.0 7.0 0.00 0.00 0.00 72 1011.5
20260905161839 92 156 2.0 3.0 0.00 0.00 0.00 74 1011.5
20260905161338 91 265 2.0 7.0 0.00 0.00 0.00 74 1011.9
20260905160839 91 263 5.0 12.0 0.00 0.00 0.00 76 1011.9
20260905160338 91 285 5.0 12.0 0.00 0.00 0.00 75 1011.9
20260905155839 90 139 2.0 3.0 0.00 0.00 0.00 75 1011.9
20260905155338 90 218 3.0 7.0 0.00 0.00 0.00 75 1011.9
20260905154839 90 217 3.0 3.0 0.00 0.00 0.00 77 1011.9
20260905154338 90 228 5.0 10.0 0.00 0.00 0.00 76 1012.2
20260905153839 90 282 6.0 12.0 0.00 0.00 0.00 76 1011.9
20260905153338 90 171 5.0 10.0 0.00 0.00 0.00 76 1012.2
20260905152838 89 209 6.0 7.0 0.00 0.00 0.00 76 1012.2
20260905152338 89 241 6.0 7.0 0.00 0.00 0.00 77 1012.2
20260905151839 89 277 5.0 5.0 0.00 0.00 0.00 77 1012.2
20260905151339 89 264 5.0 9.0 0.00 0.00 0.00 77 1012.2
20260905150839 89 193 3.0 9.0 0.00 0.00 0.00 78 1012.2
20260905150338 88 232 5.0 12.0 0.00 0.00 0.00 78 1012.2
20260905145838 88 258 6.0 10.0 0.00 0.00 0.00 79 1011.9
20260905145338 88 218 5.0 7.0 0.00 0.00 0.00 78 1011.9
20260905144838 88 272 8.0 9.0 0.00 0.00 0.00 79 1012.2
20260905144338 88 220 8.0 14.0 0.00 0.00 0.00 80 1012.2
20260905143838 87 224 8.0 9.0 0.00 0.00 0.00 82 1012.2
20260905143338 87 248 3.0 3.0 0.00 0.00 0.00 83 1012.2
20260905142838 87 237 5.0 5.0 0.00 0.00 0.00 83 1012.2
20260905142338 86 195 3.0 9.0 0.00 0.00 0.00 83 1012.2
20260905141838 86 238 6.0 12.0 0.00 0.00 0.00 83 1012.2
20260905141338 86 273 6.0 7.0 0.00 0.00 0.00 84 1012.2
20260905140839 85 249 3.0 3.0 0.00 0.00 0.00 84 1012.2
20260905140341 85 269 3.0 3.0 0.00 0.00 0.00 85 1012.2
20260905135838 85 208 3.0 5.0 0.00 0.00 0.00 85 1012.2
20260905135339 85 250 6.0 10.0 0.00 0.00 0.00 86 1012.2
20260905134838 85 263 8.0 9.0 0.00 0.00 0.00 87 1012.2
20260905134341 85 227 6.0 7.0 0.00 0.00 0.00 87 1012.2
20260905133839 84 230 3.0 5.0 0.00 0.00 0.00 87 1012.2
20260905133338 84 276 3.0 3.0 0.00 0.00 0.00 88 1012.5
20260905132839 84 234 6.0 7.0 0.00 0.00 0.00 88 1012.5
20260905132339 84 12 5.0 5.0 0.00 0.00 0.00 88 1012.5
20260905131840 83 277 8.0 9.0 0.00 0.00 0.00 89 1012.5
20260905131340 83 241 5.0 5.0 0.00 0.00 0.00 90 1012.5
20260905130839 83 219 6.0 7.0 0.00 0.00 0.00 90 1012.5
20260905130338 82 261 5.0 7.0 0.00 0.00 0.00 91 1012.5
20260905125838 82 216 5.0 9.0 0.00 0.00 0.00 92 1012.5
20260905125338 82 290 3.0 5.0 0.00 0.00 0.00 92 1012.5
20260905124839 81 274 3.0 7.0 0.00 0.00 0.00 93 1012.5
20260905124338 81 279 2.0 3.0 0.00 0.00 0.00 94 1012.5
20260905123838 81 264 3.0 7.0 0.00 0.00 0.00 94 1012.5
20260905123339 81 260 10.0 10.0 0.00 0.00 0.00 94 1012.5
20260905122838 80 265 3.0 5.0 0.00 0.00 0.00 95 1012.5
20260905122338 80 236 5.0 5.0 0.00 0.00 0.00 95 1012.5
20260905121838 80 237 5.0 5.0 0.00 0.00 0.00 96 1012.5
20260905121338 79 237 2.0 7.0 0.00 0.00 0.00 97 1012.5
20260905120839 79 268 3.0 5.0 0.00 0.00 0.00 97 1012.5
20260905120340 79 264 3.0 7.0 0.00 0.00 0.00 98 1012.5
20260905115839 79 236 2.0 5.0 0.00 0.00 0.00 98 1012.5
20260905114913 78 235 2.0 3.0 0.00 0.00 0.00 99 1012.5
20260905114338 78 227 3.0 3.0 0.00 0.00 0.00 99 1012.5
20260905113838 78 217 2.0 5.0 0.00 0.00 0.00 99 1012.5
20260905113339 78 219 3.0 3.0 0.00 0.00 0.00 100 1012.5
20260905112838 78 254 3.0 3.0 0.00 0.00 0.00 100 1012.2
20260905112338 77 223 2.0 5.0 0.00 0.00 0.00 100 1012.2
20260905111839 77 226 3.0 5.0 0.00 0.00 0.00 100 1012.2
20260905111338 77 139 2.0 2.0 0.00 0.00 0.00 100 1012.2
20260905110838 77 256 3.0 5.0 0.00 0.00 0.00 100 1012.2
20260905110338 77 237 2.0 2.0 0.00 0.00 0.00 100 1012.2
20260905105840 77 258 3.0 3.0 0.00 0.00 0.00 100 1012.2
20260905105338 77 266 0.0 3.0 0.00 0.00 0.00 100 1012.2
20260905104839 77 206 3.0 5.0 0.00 0.00 0.00 100 1012.2
20260905104338 77 212 3.0 3.0 0.00 0.00 0.00 100 1012.2
20260905103838 77 246 3.0 5.0 0.00 0.00 0.00 100 1012.2
20260905103338 77 224 2.0 2.0 0.00 0.00 0.00 100 1012.2
20260905102838 77 262 3.0 3.0 0.00 0.00 0.00 100 1011.9
20260905102338 77 234 2.0 3.0 0.00 0.00 0.00 100 1011.9
20260905101839 77 206 2.0 3.0 0.00 0.00 0.00 100 1011.9
20260905101340 77 257 2.0 3.0 0.00 0.00 0.00 100 1011.9
20260905100838 77 255 2.0 2.0 0.00 0.00 0.00 100 1011.9
20260905100338 77 250 2.0 2.0 0.00 0.00 0.00 100 1011.9
20260905095359 77 254 2.0 2.0 0.00 0.00 0.00 100 1011.9
20260905094839 77 232 2.0 2.0 0.00 0.00 0.00 100 1011.9
20260905094338 76 210 3.0 3.0 0.00 0.00 0.00 100 1011.9
20260905093838 76 227 3.0 3.0 0.00 0.00 0.00 100 1011.9
20260905093339 76 247 2.0 3.0 0.00 0.00 0.00 100 1011.9
20260905092838 76 217 3.0 3.0 0.00 0.00 0.00 100 1011.9
20260905092339 76 233 3.0 3.0 0.00 0.00 0.00 100 1011.9
20260905091839 76 231 3.0 3.0 0.00 0.00 0.00 99 1011.9
20260905091339 76 244 2.0 3.0 0.00 0.00 0.00 99 1011.9
20260905090838 76 204 3.0 3.0 0.00 0.00 0.00 99 1011.9
20260905090340 76 216 3.0 5.0 0.00 0.00 0.00 99 1011.9
20260905085839 76 226 3.0 5.0 0.00 0.00 0.00 99 1012.2
20260905085339 76 230 3.0 3.0 0.00 0.00 0.00 99 1012.2
20260905084838 76 225 3.0 3.0 0.00 0.00 0.00 98 1012.2
20260905084338 76 229 2.0 3.0 0.00 0.00 0.00 98 1012.2
20260905083840 76 253 3.0 3.0 0.00 0.00 0.00 98 1012.2
20260905083338 76 239 2.0 2.0 0.00 0.00 0.00 98 1011.9
20260905082840 76 254 2.0 5.0 0.00 0.00 0.00 97 1012.2
20260905082338 76 230 3.0 3.0 0.00 0.00 0.00 97 1012.2
20260905081838 76 252 6.0 7.0 0.00 0.00 0.00 97 1012.2
20260905081338 76 247 3.0 3.0 0.00 0.00 0.00 97 1012.2
20260905080839 76 211 3.0 5.0 0.00 0.00 0.00 97 1012.2
20260905080339 76 266 2.0 2.0 0.00 0.00 0.00 97 1012.2
20260905075838 76 280 2.0 3.0 0.00 0.00 0.00 97 1012.5
20260905075338 76 255 3.0 3.0 0.00 0.00 0.00 97 1012.5
20260905074838 76 230 3.0 3.0 0.00 0.00 0.00 97 1012.5
20260905074338 76 269 3.0 3.0 0.00 0.00 0.00 97 1012.5
20260905073838 76 245 3.0 3.0 0.00 0.00 0.00 97 1012.5
20260905073338 76 232 2.0 3.0 0.00 0.00 0.00 97 1012.5
20260905072838 76 247 2.0 2.0 0.00 0.00 0.00 96 1012.5
20260905072338 76 253 2.0 3.0 0.00 0.00 0.00 96 1012.5
20260905071838 76 251 2.0 2.0 0.00 0.00 0.00 96 1012.5
20260905071338 76 274 2.0 3.0 0.00 0.00 0.00 96 1012.5
20260905070838 76 263 2.0 2.0 0.00 0.00 0.00 96 1012.5
20260905070339 76 253 2.0 2.0 0.00 0.00 0.00 96 1012.5
20260905065838 76 233 2.0 3.0 0.00 0.00 0.00 96 1012.5
20260905065338 76 230 3.0 3.0 0.00 0.00 0.00 96 1012.9
20260905064838 76 283 2.0 3.0 0.00 0.00 0.00 95 1012.9
20260905064340 76 28 2.0 2.0 0.00 0.00 0.00 95 1012.9
20260905063838 76 280 0.0 0.0 0.00 0.00 0.00 95 1012.9
20260905063338 76 296 0.0 0.0 0.00 0.00 0.00 94 1012.9
20260905062838 76 313 0.0 0.0 0.00 0.00 0.00 94 1012.9
20260905062338 76 35 0.0 2.0 0.00 0.00 0.00 94 1012.9
20260905061839 76 32 0.0 0.0 0.00 0.00 0.00 94 1012.9
20260905061338 76 333 0.0 0.0 0.00 0.00 0.00 93 1012.9
20260905060839 77 323 0.0 0.0 0.00 0.00 0.00 93 1012.9
20260905060338 77 338 0.0 0.0 0.00 0.00 0.00 93 1013.2
20260905055839 77 353 0.0 0.0 0.00 0.00 0.00 93 1013.2
20260905055338 77 348 0.0 0.0 0.00 0.00 0.00 92 1013.2
20260905054838 77 352 0.0 0.0 0.00 0.00 0.00 92 1013.2
20260905054338 77 7 2.0 2.0 0.00 0.00 0.00 91 1013.2
20260905053839 77 312 0.0 0.0 0.00 0.00 0.00 91 1013.2